Fosston, MN

10:43 AM CDT on March 27, 2017 (GMT -0500)
Fosston Municipal

Weather History for KFSE - February, 2012

Change the Weather History Date:

Tuesday, February 28, 2012

  Actual Average Record
Temperature  
Mean Temperature 26 °F -  
Max Temperature 39 °F 27 °F 42 °F (1958)
Min Temperature 12 °F 7 °F -40 °F (1962)
Degree Days  
Heating Degree Days 40    
Moisture  
Dew Point 17 °F    
Average Humidity 71    
Maximum Humidity 86    
Minimum Humidity 48    
Precipitation  
Precipitation 0.00 in - - ()
Sea Level Pressure  
Sea Level Pressure 30.06 in    
Wind  
Wind Speed 5 mph (ESE)    
Max Wind Speed 13 mph    
Max Gust Speed 18 mph    
Visibility 10 miles    
Events Snow    
Averages and records for this station are not official NWS values.
T = Trace of Precipitation, MM = Missing Value Source: NWS Daily Summary

Daily Weather History Graph

Daily Weather History Graph

Search for Another Location

Airport or City:

Trip Planner

Search our weather history database for the weather conditions in past years. The results will help you decide how hot, cold, wet, or windy it might be!

Date:

Astronomy

Feb. 28, 2012 Rise Set
Actual Time 7:06 AM CST 6:05 PM CST
Civil Twilight 6:35 AM CST 6:36 PM CST
Nautical Twilight 5:59 AM CST 7:12 PM CST
Astronomical Twilight 5:24 AM CST 7:48 PM CST
Moon 9:43 AM CST (2/28) 12:29 AM CST (2/28)
Length of Visible Light 12h 01m
Length of Day
10h 59m
Waxing Crescent, 38% of the Moon is Illuminated
Feb 28
Waxing Crescent
Feb 29
First Quarter
Mar 8
Full
Mar 14
Last Quarter
Mar 22
New

Hourly Weather History & Observations

Time (CST) Temp. Windchill Dew Point Humidity Pressure Visibility Wind Dir Wind Speed Gust Speed Precip Events Conditions
12:15 AM 12.2 °F - 6.8 °F 79% 30.24 in 10.0 mi Calm Calm - N/A   Overcast
12:35 AM 12.2 °F - 6.8 °F 79% 30.24 in 10.0 mi Calm Calm - N/A   Overcast
12:55 AM 12.2 °F - 6.8 °F 79% 30.24 in 3.0 mi Calm Calm - N/A Snow Light Snow
1:15 AM 14.0 °F 5.1 °F 8.6 °F 79% 30.22 in 3.0 mi SE 5.8 mph - N/A Snow Light Snow
1:36 AM 15.8 °F 5.1 °F 10.4 °F 79% 30.21 in 5.0 mi SE 8.1 mph - N/A   Overcast
1:55 AM 15.8 °F 6.1 °F 10.4 °F 79% 30.21 in 7.0 mi SSE 6.9 mph - N/A Snow Light Snow
2:15 AM 15.8 °F 6.1 °F 12.2 °F 86% 30.20 in 5.0 mi SE 6.9 mph - N/A Snow Light Snow
2:35 AM 17.6 °F 8.2 °F 12.2 °F 79% 30.19 in 10.0 mi SE 6.9 mph - N/A   Overcast
2:55 AM 17.6 °F 6.4 °F 12.2 °F 79% 30.18 in 10.0 mi SE 9.2 mph - N/A   Overcast
3:15 AM 17.6 °F 6.4 °F 12.2 °F 79% 30.17 in 10.0 mi SE 9.2 mph - N/A   Overcast
3:36 AM 17.6 °F 7.3 °F 12.2 °F 79% 30.16 in 10.0 mi ESE 8.1 mph - N/A   Overcast
3:55 AM 17.6 °F 7.3 °F 14.0 °F 86% 30.15 in 10.0 mi ESE 8.1 mph - N/A   Overcast
4:15 AM 17.6 °F 7.3 °F 14.0 °F 86% 30.14 in 10.0 mi ESE 8.1 mph - N/A   Overcast
4:34 AM 19.4 °F 9.5 °F 15.8 °F 86% 30.12 in 10.0 mi ESE 8.1 mph - N/A   Overcast
4:55 AM 19.4 °F 7.9 °F 15.8 °F 86% 30.11 in 10.0 mi ESE 10.4 mph - N/A   Overcast
5:15 AM 19.4 °F 7.2 °F 15.8 °F 86% 30.11 in 10.0 mi SE 11.5 mph 17.3 mph N/A   Overcast
5:35 AM 19.4 °F 8.6 °F 15.8 °F 86% 30.11 in 10.0 mi SE 9.2 mph - N/A   Overcast
5:55 AM 19.4 °F 8.6 °F 15.8 °F 86% 30.11 in 10.0 mi SE 9.2 mph - N/A   Overcast
6:15 AM 19.4 °F 7.9 °F 15.8 °F 86% 30.10 in 10.0 mi SE 10.4 mph - N/A   Overcast
6:35 AM 19.4 °F 9.5 °F 14.0 °F 80% 30.10 in 10.0 mi SE 8.1 mph - N/A   Mostly Cloudy
6:55 AM 19.4 °F 8.6 °F 12.2 °F 74% 30.09 in 10.0 mi SE 9.2 mph - N/A   Scattered Clouds
7:15 AM 17.6 °F 5.7 °F 12.2 °F 79% 30.09 in 10.0 mi SE 10.4 mph - N/A   Scattered Clouds
7:35 AM 17.6 °F 7.3 °F 12.2 °F 79% 30.08 in 10.0 mi SE 8.1 mph - N/A   Clear
7:55 AM 17.6 °F 7.3 °F 14.0 °F 86% 30.07 in 10.0 mi SE 8.1 mph - N/A   Clear
8:15 AM 19.4 °F 12.8 °F 15.8 °F 86% 30.08 in 10.0 mi ESE 4.6 mph - N/A   Clear
8:35 AM 21.2 °F 13.6 °F 15.8 °F 80% 30.08 in 10.0 mi ESE 5.8 mph - N/A   Clear
8:55 AM 24.8 °F - 17.6 °F 74% 30.08 in 10.0 mi Calm Calm - N/A   Clear
9:15 AM 26.6 °F 20.0 °F 19.4 °F 74% 30.07 in 10.0 mi ESE 5.8 mph - N/A   Clear
9:35 AM 26.6 °F 19.1 °F 19.4 °F 74% 30.05 in 10.0 mi ESE 6.9 mph - N/A   Clear
9:55 AM 28.4 °F 21.2 °F 21.2 °F 74% 30.04 in 10.0 mi ESE 6.9 mph - N/A   Clear
10:15 AM 30.2 °F - 21.2 °F 69% 30.04 in 10.0 mi Calm Calm - N/A   Clear
10:35 AM 32.0 °F - 21.2 °F 64% 30.04 in 10.0 mi Calm Calm - N/A   Clear
10:55 AM 33.8 °F - 23.0 °F 65% 30.03 in 10.0 mi Calm Calm - N/A   Clear
11:15 AM 35.6 °F - 23.0 °F 60% 30.03 in 10.0 mi Calm Calm - N/A   Clear
11:35 AM 37.4 °F 33.8 °F 21.2 °F 52% 30.02 in 10.0 mi ESE 4.6 mph - N/A   Clear
11:55 AM 37.4 °F 33.8 °F 21.2 °F 52% 30.01 in 10.0 mi ESE 4.6 mph - N/A   Clear
12:15 PM 39.2 °F - 21.2 °F 49% 30.01 in 10.0 mi Calm Calm - N/A   Clear
12:35 PM 39.2 °F - 21.2 °F 49% 30.01 in 10.0 mi Calm Calm - N/A   Clear
12:55 PM 39.2 °F 37.0 °F 21.2 °F 49% 29.99 in 10.0 mi East 3.5 mph - N/A   Clear
1:15 PM 39.2 °F 35.0 °F 21.2 °F 49% 29.99 in 10.0 mi ESE 5.8 mph - N/A   Clear
1:35 PM 39.2 °F 37.0 °F 21.2 °F 49% 29.98 in 10.0 mi ESE 3.5 mph - N/A   Clear
1:55 PM 39.2 °F 33.6 °F 23.0 °F 52% 29.97 in 10.0 mi East 8.1 mph - N/A   Clear
2:15 PM 39.2 °F 35.9 °F 21.2 °F 49% 29.96 in 10.0 mi East 4.6 mph - N/A   Clear
2:35 PM 37.4 °F 31.4 °F 19.4 °F 48% 29.95 in 10.0 mi ESE 8.1 mph - N/A   Clear
2:55 PM 37.4 °F 31.4 °F 21.2 °F 52% 29.94 in 10.0 mi ESE 8.1 mph - N/A   Clear
3:15 PM 37.4 °F 34.9 °F 23.0 °F 56% 29.93 in 10.0 mi East 3.5 mph - N/A   Clear
3:35 PM 37.4 °F - 21.2 °F 52% 29.92 in 10.0 mi Calm Calm - N/A   Clear
3:55 PM 35.6 °F 29.2 °F 21.2 °F 56% 29.93 in 10.0 mi East 8.1 mph - N/A   Clear
4:15 PM 32.0 °F 24.8 °F 21.2 °F 64% 29.92 in 10.0 mi East 8.1 mph - N/A   Clear
4:35 PM 30.2 °F 20.8 °F 21.2 °F 69% 29.91 in 10.0 mi East 11.5 mph 17.3 mph N/A   Clear
4:55 PM 28.4 °F 19.1 °F 21.2 °F 74% 29.91 in 10.0 mi East 10.4 mph - N/A   Scattered Clouds
5:15 PM 28.4 °F 18.0 °F 21.2 °F 74% 29.91 in 10.0 mi East 12.7 mph 18.4 mph N/A   Overcast
5:35 PM 28.4 °F 18.0 °F 21.2 °F 74% 29.91 in 10.0 mi East 12.7 mph 18.4 mph N/A   Overcast
5:55 PM 28.4 °F 19.1 °F 21.2 °F 74% 29.89 in 10.0 mi East 10.4 mph - N/A   Overcast
6:15 PM 26.6 °F 16.2 °F 21.2 °F 80% 29.89 in 10.0 mi East 11.5 mph 16.1 mph N/A   Overcast
6:35 PM 26.6 °F 17.5 °F 21.2 °F 80% 29.88 in 10.0 mi East 9.2 mph 17.3 mph N/A   Overcast
6:55 PM 28.4 °F 19.7 °F 21.2 °F 74% 29.87 in 10.0 mi East 9.2 mph - N/A   Overcast
7:15 PM 28.4 °F 19.1 °F 21.2 °F 74% 29.87 in 10.0 mi East 10.4 mph - N/A   Overcast
7:35 PM 28.4 °F 18.5 °F 21.2 °F 74% 29.87 in 10.0 mi East 11.5 mph - N/A   Overcast
7:55 PM 28.4 °F 18.5 °F 23.0 °F 80% 29.86 in 10.0 mi East 11.5 mph 18.4 mph N/A   Overcast
8:15 PM 28.4 °F 18.0 °F 23.0 °F 80% 29.85 in 10.0 mi East 12.7 mph 17.3 mph N/A   Overcast
8:35 PM 28.4 °F 17.5 °F 23.0 °F 80% 29.84 in 10.0 mi East 13.8 mph 18.4 mph N/A   Overcast
8:55 PM 28.4 °F 16.6 °F 24.8 °F 86% 29.84 in 10.0 mi East 16.1 mph 23.0 mph N/A   Overcast
9:15 PM 28.4 °F 17.5 °F 23.0 °F 80% 29.83 in 10.0 mi East 13.8 mph 18.4 mph N/A   Overcast
9:35 PM 28.4 °F 17.0 °F 23.0 °F 80% 29.82 in 10.0 mi East 15.0 mph 20.7 mph N/A   Overcast
9:55 PM 26.6 °F 14.7 °F 23.0 °F 86% 29.81 in 7.0 mi East 15.0 mph 23.0 mph N/A   Overcast
10:15 PM 28.4 °F 17.5 °F 23.0 °F 80% 29.81 in 10.0 mi ENE 13.8 mph 18.4 mph N/A   Overcast
10:35 PM 28.4 °F 16.6 °F 23.0 °F 80% 29.79 in 10.0 mi East 16.1 mph 19.6 mph N/A   Overcast
10:55 PM 28.4 °F 17.5 °F 23.0 °F 80% 29.79 in 10.0 mi East 13.8 mph - N/A   Overcast
11:15 PM 26.6 °F 16.8 °F 23.0 °F 86% 29.78 in 10.0 mi ENE 10.4 mph - N/A   Mostly Cloudy
11:35 PM 26.6 °F 15.2 °F 23.0 °F 86% 29.76 in 10.0 mi ENE 13.8 mph 19.6 mph N/A   Scattered Clouds
11:55 PM 26.6 °F 16.2 °F 21.2 °F 80% 29.74 in 10.0 mi ENE 11.5 mph 23.0 mph N/A   Clear